EW6612 Weather Reports


Display with metric or nautical units.
time (UTC)temp
F
wind
direction
speed
MPH
gust
MPH
rain 1hr
in
rain 24hr
in
rain mn
in
humidity
%
barometer
mb
20200918223748 65 234 3.0 10.0 0.00 1.50 1.50 92 1011.1
20200918222745 65 266 3.0 12.0 0.00 1.50 1.50 92 1011.1
20200918221746 65 263 4.0 11.0 0.00 1.50 1.50 92 1011.0
20200918220736 65 308 5.0 10.0 0.00 1.50 1.50 92 1010.8
20200918215738 65 271 6.0 16.0 0.00 1.50 1.50 93 1010.6
20200918214748 65 236 7.0 12.0 0.00 1.50 1.50 93 1010.3
20200918213737 65 248 8.0 15.0 0.00 1.50 1.50 93 1010.2
20200918212732 65 238 7.0 16.0 0.00 1.50 1.50 93 1009.9
20200918211735 65 257 10.0 21.0 0.01 1.50 1.50 93 1009.7
20200918210745 65 240 8.0 20.0 0.01 1.50 1.50 93 1009.5
20200918205729 65 225 9.0 20.0 0.01 1.50 1.50 93 1009.2
20200918204731 65 227 7.0 15.0 0.01 1.50 1.50 93 1008.9
20200918203739 65 246 11.0 24.0 0.02 1.50 1.50 93 1008.3
20200918202727 65 240 10.0 21.0 0.04 1.50 1.50 93 1008.0
20200918201724 65 222 10.0 21.0 0.06 1.49 1.49 93 1007.7
20200918200727 65 262 10.0 18.0 0.06 1.49 1.49 93 1007.2
20200918195724 65 267 11.0 22.0 0.09 1.49 1.49 93 1006.7
20200918194727 65 234 13.0 22.0 0.12 1.49 1.49 93 1006.1
20200918193715 65 252 14.0 26.0 0.21 1.48 1.48 93 1005.4
20200918192722 65 246 16.0 33.0 0.26 1.46 1.46 93 1004.8
20200918191722 65 253 15.0 30.0 0.37 1.43 1.43 92 1004.2
20200918190711 65 232 16.0 31.0 0.48 1.43 1.43 92 1003.7
20200918185717 65 263 15.0 37.0 0.47 1.40 1.41 92 1002.9
20200918184708 64 185 17.0 35.0 0.46 1.36 1.37 92 1002.6
20200918183717 64 265 16.0 42.0 0.42 1.28 1.28 92 1003.2
20200918182705 64 182 13.0 32.0 0.37 1.19 1.20 91 1002.3
20200918181710 64 178 15.0 43.0 0.25 1.03 1.06 90 1002.0
20200918180702 64 243 14.0 31.0 0.18 0.95 0.95 90 1002.1
20200918175709 65 81 12.0 28.0 0.16 0.93 0.94 89 1002.0
20200918174659 65 208 16.0 31.0 0.13 0.90 0.90 89 1001.9
20200918173658 66 221 17.0 37.0 0.09 0.86 0.86 87 1002.1
20200918172656 67 149 18.0 31.0 0.04 0.81 0.81 86 1002.6
20200918171702 68 148 20.0 39.0 0.01 0.78 0.78 84 1002.3
20200918170706 68 145 17.0 27.0 0.00 0.77 0.77 86 1002.2
20200918165704 68 145 16.0 27.0 0.02 0.77 0.77 87 1002.4
20200918164705 68 156 15.0 30.0 0.04 0.77 0.77 87 1002.7
20200918163649 68 159 16.0 28.0 0.04 0.77 0.77 86 1003.0
20200918162650 68 181 14.0 24.0 0.04 0.77 0.77 86 1002.9
20200918161656 68 138 14.0 29.0 0.09 0.77 0.77 87 1003.2
20200918160652 68 126 13.0 21.0 0.09 0.77 0.77 88 1003.4
20200918155701 68 148 12.0 19.0 0.07 0.75 0.75 87 1003.6
20200918154642 68 128 13.0 25.0 0.06 0.74 0.74 88 1003.7
20200918153653 68 108 11.0 18.0 0.06 0.74 0.74 89 1003.9
20200918152649 68 100 10.0 18.0 0.05 0.73 0.73 88 1003.9
20200918151643 69 132 9.0 13.0 0.02 0.69 0.69 87 1004.2
20200918150645 69 101 9.0 15.0 0.03 0.68 0.68 87 1004.3
20200918145640 68 116 9.0 14.0 0.05 0.68 0.68 87 1004.6
20200918144647 68 153 8.0 13.0 0.05 0.68 0.68 88 1004.8
20200918143645 68 137 10.0 16.0 0.05 0.68 0.68 88 1004.9
20200918142641 68 142 8.0 13.0 0.07 0.68 0.68 87 1005.1
20200918141638 68 152 9.0 16.0 0.06 0.66 0.66 86 1005.2
20200918140642 69 130 10.0 24.0 0.04 0.65 0.65 84 1005.3
20200918135648 70 142 8.0 13.0 0.02 0.63 0.63 84 1005.4
20200918134648 70 119 10.0 19.0 0.02 0.63 0.63 84 1005.5
20200918133639 71 130 14.0 29.0 0.02 0.63 0.63 80 1005.6
20200918132637 72 129 10.0 17.0 0.02 0.61 0.61 81 1005.4
20200918131643 71 132 11.0 17.0 0.02 0.61 0.61 81 1005.4
20200918130646 71 119 10.0 18.0 0.02 0.61 0.61 85 1005.8
20200918125645 71 90 7.0 12.0 0.14 0.61 0.61 88 1005.7
20200918124647 70 116 7.0 14.0 0.15 0.61 0.61 90 1005.9
20200918123638 69 129 9.0 21.0 0.17 0.61 0.61 89 1006.2
20200918122634 69 115 8.0 16.0 0.18 0.59 0.59 91 1006.2
20200918121633 68 136 9.0 15.0 0.22 0.59 0.59 91 1006.3
20200918120630 67 137 7.0 14.0 0.50 0.59 0.59 91 1006.7
20200918115633 67 129 7.0 12.0 0.47 0.47 0.47 90 1006.4
20200918114640 67 63 6.0 12.0 0.45 0.45 0.45 90 1006.4
20200918113625 67 93 3.0 8.0 0.43 0.43 0.43 89 1006.9
20200918112632 67 105 6.0 13.0 0.41 0.41 0.41 87 1006.9
20200918111624 68 138 5.0 10.0 0.37 0.37 0.37 84 1007.5
20200918110629 70 140 11.0 17.0 0.09 0.09 0.17 79 1007.5
20200918105633 71 114 11.0 18.0 0.00 0.00 0.00 75 1007.1
20200918104626 71 123 8.0 17.0 0.00 0.00 0.00 76 1007.0
20200918103632 70 112 10.0 16.0 0.00 0.00 0.00 77 1007.3
20200918102626 70 94 10.0 18.0 0.00 0.00 0.00 77 1007.4
20200918101627 70 102 12.0 20.0 0.00 0.00 0.00 77 1007.3
20200918100629 70 146 12.0 23.0 0.00 0.00 0.00 77 1007.6
20200918095626 70 118 12.0 25.0 0.00 0.00 0.00 76 1007.6
20200918094625 70 134 13.0 22.0 0.00 0.00 0.00 75 1007.8
20200918093626 70 117 13.0 22.0 0.00 0.00 0.00 76 1007.7
20200918092619 69 158 14.0 22.0 0.00 0.00 0.00 76 1007.7
20200918091616 69 132 13.0 21.0 0.00 0.00 0.00 76 1007.8
20200918090621 69 129 12.0 23.0 0.00 0.00 0.00 76 1007.7
20200918085609 68 132 13.0 24.0 0.00 0.00 0.00 77 1007.9
20200918084610 67 118 9.0 18.0 0.00 0.00 0.00 79 1007.8
20200918083620 66 142 12.0 19.0 0.00 0.00 0.00 80 1007.8
20200918082614 65 150 11.0 18.0 0.00 0.00 0.00 81 1007.9
20200918081607 65 103 12.0 19.0 0.00 0.00 0.00 81 1007.9
20200918080750 65 115 8.0 16.0 0.00 0.00 0.00 81 1007.8
20200918075920 64 101 9.0 15.0 0.00 0.00 0.00 81 1008.0
20200918074917 64 117 10.0 16.0 0.00 0.00 0.00 82 1008.0
20200918073907 64 144 9.0 18.0 0.00 0.00 0.00 82 1008.1
20200918073006 63 137 6.0 13.0 0.00 0.00 0.00 83 1008.1
20200918071951 63 132 5.0 11.0 0.00 0.00 0.00 84 1008.1
20200918070949 62 96 4.0 13.0 0.00 0.00 0.00 85 1008.2
20200918065953 62 49 3.0 9.0 0.00 0.00 0.00 87 1008.2
20200918064945 62 118 2.0 7.0 0.00 0.00 0.00 87 1008.1
20200918063814 62 63 5.0 10.0 0.00 0.00 0.00 87 1008.0
20200918062555 62 107 7.0 12.0 0.00 0.00 0.00 88 1008.3
20200918061556 61 85 6.0 11.0 0.00 0.00 0.00 88 1008.2
20200918060557 61 121 5.0 10.0 0.00 0.00 0.00 88 1008.3
20200918055553 61 124 6.0 11.0 0.00 0.00 0.00 89 1008.5
20200918054604 62 121 8.0 13.0 0.00 0.00 0.00 89 1008.5
20200918053559 61 132 9.0 14.0 0.00 0.00 0.00 89 1008.2
20200918052544 61 121 8.0 12.0 0.00 0.00 0.00 90 1008.2
20200918051543 61 117 9.0 15.0 0.00 0.00 0.00 91 1008.3
20200918050543 61 119 9.0 14.0 0.00 0.00 0.00 91 1008.3
20200918045552 61 127 9.0 13.0 0.00 0.00 0.00 92 1008.3
20200918044548 60 90 6.0 11.0 0.00 0.00 0.00 93 1008.3
20200918043545 60 108 7.0 11.0 0.00 0.00 0.00 93 1008.4
20200918042558 58 107 1.0 7.0 0.00 0.00 0.00 93 1008.5
20200918041548 58 196 0.0 2.0 0.00 0.00 0.00 93 1008.6
20200918040544 58 196 1.0 3.0 0.00 0.00 0.00 92 1008.7
20200918035539 58 196 0.0 2.0 0.00 0.00 0.00 92 1008.8
20200918034539 58 196 0.0 2.0 0.00 0.00 0.00 93 1008.9
20200918033530 58 196 2.0 4.0 0.00 0.00 0.00 93 1008.9
20200918032523 58 126 1.0 6.0 0.00 0.00 0.00 93 1008.8
20200918031515 57 213 0.0 2.0 0.00 0.00 0.00 93 1008.7
20200918030521 57 213 0.0 2.0 0.00 0.00 0.00 93 1008.6
20200918025514 56 213 0.0 1.0 0.00 0.00 0.00 92 1008.6
20200918024526 56 213 0.0 0.0 0.00 0.00 0.00 92 1008.7
20200918023506 56 213 0.0 0.0 0.00 0.00 0.00 92 1008.9
20200918022458 56 213 0.0 0.0 0.00 0.00 0.00 92 1009.0
20200918021459 57 213 0.0 0.0 0.00 0.00 0.00 92 1009.3
20200918020449 57 213 0.0 0.0 0.00 0.00 0.00 92 1009.4
20200918015440 57 213 1.0 5.0 0.00 0.00 0.00 92 1009.6
20200918014440 57 244 0.0 3.0 0.00 0.00 0.00 92 1009.8
20200918013439 57 244 0.0 0.0 0.00 0.00 0.00 92 1009.7
20200918012428 57 244 0.0 2.0 0.00 0.00 0.00 92 1009.9
20200918011412 57 244 1.0 2.0 0.00 0.00 0.00 92 1009.8
20200918010416 57 244 0.0 2.0 0.00 0.00 0.00 92 1009.9
20200918005415 57 244 0.0 1.0 0.00 0.00 0.00 92 1010.0
20200918004340 57 244 1.0 2.0 0.00 0.00 0.00 92 1010.1
20200918003345 56 244 0.0 1.0 0.00 0.00 0.00 92 1010.1
20200918002346 56 244 0.0 2.0 0.00 0.00 0.00 92 1010.2
20200918001335 56 244 0.0 0.0 0.00 0.00 0.00 92 1010.2
20200918000323 55 244 0.0 0.0 0.00 0.00 0.00 91 1010.2
20200917235315 56 244 0.0 0.0 0.00 0.00 0.00 91 1010.1
20200917234307 56 244 0.0 0.0 0.00 0.00 0.00 91 1010.0
20200917233307 56 244 0.0 0.0 0.00 0.00 0.00 90 1010.2
20200917232300 56 244 0.0 0.0 0.00 0.00 0.00 91 1010.1
20200917231251 56 244 0.0 0.0 0.00 0.00 0.00 90 1010.2
20200917230237 57 244 0.0 0.0 0.00 0.00 0.00 90 1010.3
20200917225236 57 244 0.0 2.0 0.00 0.00 0.00 91 1010.4
20200917224224 57 244 1.0 3.0 0.00 0.00 0.00 90 1010.4